| time (UTC) | temp C | wind direction | speed KPH | gust KPH | rain 1hr cm | rain 24hr cm | rain mn cm | humidity % | barometer mb |
| 20260906074452 | 7 | 318 | 24.1 | 43.5 | 0.00 | 0.03 | 0.00 | 77 | 1002.2 |
| 20260906070451 | 7 | 323 | 24.1 | 43.5 | 0.00 | 0.03 | 0.00 | 77 | 1001.6 |
| 20260906064452 | 7 | 323 | 19.3 | 40.2 | 0.00 | 0.03 | 0.00 | 82 | 1001.3 |
| 20260906062452 | 7 | 326 | 22.5 | 38.6 | 0.00 | 0.03 | 0.00 | 80 | 1001.0 |
| 20260906060451 | 7 | 325 | 24.1 | 45.1 | 0.00 | 0.03 | 0.00 | 80 | 1000.9 |
| 20260906054452 | 7 | 326 | 20.9 | 37.0 | 0.00 | 0.03 | 0.00 | 83 | 1000.8 |
| 20260906050452 | 6 | 311 | 20.9 | 32.2 | 0.00 | 0.03 | 0.00 | 87 | 1000.3 |
| 20260906044453 | 6 | 314 | 20.9 | 33.8 | 0.00 | 0.03 | 0.00 | 86 | 1000.2 |
| 20260906042452 | 7 | 318 | 17.7 | 29.0 | 0.00 | 0.03 | 0.00 | 85 | 1000.1 |
| 20260906040451 | 7 | 327 | 20.9 | 37.0 | 0.00 | 0.03 | 0.00 | 81 | 1000.0 |
| 20260906034452 | 7 | 318 | 17.7 | 32.2 | 0.00 | 0.03 | 0.00 | 82 | 999.8 |
| 20260906032451 | 7 | 327 | 25.7 | 41.8 | 0.00 | 0.03 | 0.00 | 79 | 999.7 |
| 20260906030452 | 7 | 317 | 19.3 | 41.8 | 0.00 | 0.03 | 0.00 | 80 | 999.5 |
| 20260906024451 | 7 | 325 | 20.9 | 40.2 | 0.00 | 0.03 | 0.00 | 79 | 999.4 |
| 20260906020451 | 7 | 307 | 19.3 | 33.8 | 0.00 | 0.03 | 0.00 | 80 | 999.2 |
| 20260906010452 | 8 | 303 | 17.7 | 41.8 | 0.00 | 0.03 | 0.00 | 79 | 998.8 |
| 20260906004452 | 8 | 301 | 16.1 | 33.8 | 0.00 | 0.03 | 0.00 | 80 | 998.8 |
| 20260906002451 | 8 | 312 | 14.5 | 32.2 | 0.00 | 0.03 | 0.00 | 81 | 998.7 |
| 20260906000451 | 8 | 316 | 17.7 | 30.6 | 0.00 | 0.03 | 0.00 | 82 | 998.5 |
| 20260905234451 | 8 | 336 | 19.3 | 33.8 | 0.00 | 0.03 | 0.00 | 79 | 998.6 |
| 20260905232451 | 8 | 328 | 20.9 | 40.2 | 0.00 | 0.03 | 0.00 | 79 | 998.7 |
| 20260905230451 | 8 | 330 | 24.1 | 41.8 | 0.00 | 0.03 | 0.00 | 80 | 998.7 |
| 20260905224451 | 9 | 324 | 20.9 | 38.6 | 0.00 | 0.03 | 0.00 | 83 | 998.3 |
| 20260905222449 | 9 | 324 | 19.3 | 33.8 | 0.00 | 0.03 | 0.00 | 81 | 998.2 |
| 20260905220450 | 9 | 326 | 19.3 | 33.8 | 0.00 | 0.03 | 0.00 | 85 | 998.2 |
| 20260905214451 | 9 | 323 | 17.7 | 33.8 | 0.00 | 0.03 | 0.00 | 81 | 998.0 |
| 20260905212450 | 10 | 321 | 22.5 | 35.4 | 0.00 | 0.03 | 0.00 | 83 | 997.9 |
| 20260905210450 | 10 | 328 | 17.7 | 30.6 | 0.00 | 0.03 | 0.00 | 82 | 997.7 |
| 20260905204450 | 10 | 327 | 22.5 | 37.0 | 0.00 | 0.03 | 0.03 | 80 | 997.6 |
| 20260905202450 | 10 | 326 | 17.7 | 35.4 | 0.00 | 0.03 | 0.03 | 79 | 997.5 |
| 20260905200451 | 10 | 326 | 19.3 | 32.2 | 0.00 | 0.03 | 0.03 | 79 | 997.4 |
| 20260905194450 | 11 | 327 | 17.7 | 30.6 | 0.00 | 0.03 | 0.03 | 81 | 997.2 |
| 20260905192451 | 11 | 327 | 14.5 | 32.2 | 0.00 | 0.03 | 0.03 | 83 | 997.2 |
| 20260905184451 | 11 | 325 | 14.5 | 24.1 | 0.00 | 0.03 | 0.03 | 87 | 997.0 |
| 20260905182449 | 12 | 329 | 12.9 | 22.5 | 0.00 | 0.03 | 0.03 | 83 | 996.7 |
| 20260905180448 | 12 | 334 | 12.9 | 24.1 | 0.00 | 0.03 | 0.03 | 83 | 996.6 |
| 20260905174448 | 12 | 326 | 16.1 | 27.4 | 0.00 | 0.03 | 0.03 | 81 | 996.5 |
| 20260905172449 | 12 | 326 | 14.5 | 24.1 | 0.00 | 0.03 | 0.03 | 81 | 996.2 |
| 20260905170449 | 12 | 325 | 14.5 | 22.5 | 0.00 | 0.03 | 0.03 | 79 | 995.9 |
| 20260905164450 | 12 | 325 | 14.5 | 20.9 | 0.00 | 0.03 | 0.03 | 78 | 995.7 |
| 20260905162451 | 12 | 323 | 12.9 | 19.3 | 0.00 | 0.03 | 0.03 | 76 | 995.6 |
| 20260905154450 | 12 | 326 | 11.3 | 20.9 | 0.00 | 0.03 | 0.03 | 74 | 995.3 |
| 20260905152451 | 13 | 321 | 9.7 | 20.9 | 0.00 | 0.03 | 0.03 | 73 | 995.1 |
| 20260905144449 | 13 | 303 | 14.5 | 32.2 | 0.00 | 0.03 | 0.03 | 72 | 994.8 |
| 20260905142449 | 14 | 303 | 9.7 | 17.7 | 0.00 | 0.03 | 0.03 | 70 | 994.6 |
| 20260905140450 | 14 | 314 | 8.0 | 12.9 | 0.00 | 0.03 | 0.03 | 71 | 994.5 |
| 20260905130451 | 13 | 296 | 6.4 | 14.5 | 0.00 | 0.00 | 0.00 | 79 | 994.3 |
| 20260905122449 | 12 | 320 | 6.4 | 16.1 | 0.00 | 0.00 | 0.00 | 85 | 994.2 |
| 20260905120448 | 13 | 317 | 14.5 | 22.5 | 0.00 | 0.00 | 0.00 | 70 | 994.1 |
| 20260905112450 | 13 | 329 | 11.3 | 20.9 | 0.00 | 0.00 | 0.00 | 66 | 993.8 |
| 20260905110448 | 13 | 317 | 12.9 | 20.9 | 0.00 | 0.00 | 0.00 | 71 | 993.8 |
| 20260905104448 | 13 | 323 | 11.3 | 17.7 | 0.00 | 0.00 | 0.00 | 74 | 993.6 |
| 20260905102449 | 13 | 318 | 12.9 | 17.7 | 0.00 | 0.00 | 0.00 | 72 | 993.5 |
| 20260905100448 | 13 | 312 | 9.7 | 17.7 | 0.00 | 0.00 | 0.00 | 75 | 993.5 |
| 20260905094447 | 12 | 331 | 9.7 | 16.1 | 0.00 | 0.00 | 0.00 | 81 | 993.4 |
| 20260905092448 | 13 | 322 | 11.3 | 20.9 | 0.00 | 0.00 | 0.00 | 80 | 993.4 |
| 20260905090448 | 12 | 317 | 12.9 | 20.9 | 0.00 | 0.00 | 0.00 | 82 | 993.4 |
| 20260905084448 | 12 | 336 | 6.4 | 17.7 | 0.00 | 0.00 | 0.00 | 84 | 993.2 |
| 20260905082450 | 12 | 315 | 8.0 | 16.1 | 0.00 | 0.00 | 0.00 | 83 | 993.2 |
| 20260905080447 | 12 | 303 | 8.0 | 14.5 | 0.00 | 0.00 | 0.00 | 82 | 993.2 |